Location: Cellule
(45.9473°N, 3.1405°E)
Time: 01:39:23
(UTC+00:00)

Daily predictions for brighter satellites

Satellite Brightness Start Highest point End
(mag) Time Altitude Azimuth Time Altitude Azimuth Time Altitude Azimuth
Cosmos 2263 Rocket 4.5 03:01:26 19° ENE 03:01:26 19° ENE 03:03:29 10° NE
ATLAS 3B R/B 3.9 03:30:35 33° NNE 03:31:27 34° NE 03:37:49 10° E
Lacrosse 4 Rocket 4.2 03:38:11 16° ESE 03:38:11 16° ESE 03:39:15 10° ESE
ALOS 3.9 03:50:19 10° NNE 03:53:16 30° ENE 03:53:16 30° ENE
NOSS 3-2 (C) 3.9 04:00:07 74° SW 04:00:07 74° SW 04:08:30 10° SSE
NOSS 3-4 (A) 3.6 04:00:49 66° ESE 04:00:49 66° ESE 04:07:02 10° NE
NOSS 3-4 (C) 3.6 04:00:54 65° SE 04:00:57 66° ESE 04:07:09 10° NE
CENTAUR R/B 3.0 04:01:35 72° WSW 04:01:58 73° WSW 04:10:47 10° SSE
Milstar 3 Cent rocket 4.5 04:00:16 20° S 04:02:34 23° SSE 04:10:31 10° ESE
SL-4 R/B 4.2 04:15:02 20° NE 04:15:02 20° NE 04:16:23 10° ENE
Cosmos 1151 Rocket 4.3 04:17:01 36° SE 04:17:01 36° SE 04:19:51 10° SSE
Cosmos 1782 4.5 04:16:34 31° ENE 04:17:03 32° ENE 04:20:41 10° SE
ATLAS 2AS CENTAUR R/B 3.1 04:15:30 26° SSW 04:20:22 74° ESE 04:28:13 10° NE
Cosmos 1680 Rocket 4.3 04:20:02 35° N 04:21:57 51° ENE 04:27:06 10° SE
Atlas Centaur 2 4.3 04:26:41 16° SSW 04:28:31 17° S 04:32:15 10° SE
ATLAS 5 CENTAUR R/B 4.1 04:31:19 15° NNE 04:31:19 15° NNE 04:31:51 10° NNE
RESURS DK-1 4.1 04:27:31 10° S 04:31:12 31° ESE 04:34:54 10° NE
ATLAS CENTAUR R/B 2.7 04:32:06 31° NE 04:32:07 31° NE 04:35:36 10° ESE
Lacrosse 5 1.8 04:32:03 72° S 04:32:23 76° SE 04:37:28 10° NE
ADEOS 3.6 04:29:23 10° NNE 04:34:38 80° ESE 04:39:51 10° SSW
Cosmos 1328 Rocket 3.6 04:35:39 74° ENE 04:35:43 75° E 04:40:08 10° SSE
Cosmos 2112 Rocket 4.4 04:38:53 27° N 04:41:46 64° ENE 04:47:03 10° SSE
Cosmos 2263 Rocket 2.5 04:43:10 46° NNW 04:43:10 46° NNW 04:47:54 10° NNE
Gbstr 26 Del rocket 3.1 04:43:34 60° E 04:43:34 60° E 04:46:51 10° ESE
SJ 16-02 1.8 04:45:52 49° N 04:45:52 49° N 04:49:14 10° NNE
Cosmos 1898 Rocket 4.0 04:47:06 10° S 04:52:19 60° ESE 04:57:35 10° NNE
Meteor 1-26 Rocket 4.1 04:48:59 18° NNW 04:53:21 75° W 04:58:56 10° S
FALCON 9 DEB 3.7 04:56:35 50° ENE 04:56:35 50° ENE 04:59:06 10° ENE
FALCON 9 DEB 3.7 04:56:45 49° ENE 04:56:45 49° ENE 04:59:13 10° ENE
FENGYUN 3A 3.6 04:54:11 10° N 04:59:29 57° WNW 05:04:45 10° SSW
Cosmos 1408 Rocket 3.5 04:57:26 10° S 05:01:55 87° W 05:06:23 10° N
Cosmos 2181 Rocket 3.9 04:58:23 10° NNW 05:04:30 63° W 05:10:32 10° S
COSMO-SKYMED 1 2.4 05:01:09 10° S 05:05:30 80° WSW 05:08:00 25° NNW
USA 307 4.2 05:05:08 27° NNW 05:05:45 28° N 05:09:30 10° ENE
Cosmos 1709 Rocket 4.2 05:00:37 10° SSW 05:06:42 46° WNW 05:12:49 10° N
Cosmos 1937 Rocket 4.0 05:04:21 10° S 05:09:24 61° ESE 05:14:31 10° NNE
USA 308 4.2 05:11:14 26° NNW 05:12:09 28° N 05:15:55 10° ENE
Lacrosse 4 Rocket 2.5 05:14:32 29° SW 05:14:32 29° SW 05:17:43 10° S
Meteor 2-3 Rocket 3.8 05:08:23 10° SSW 05:13:57 52° WNW 05:19:38 10° N
CZ-4C R/B 2.0 05:11:05 17° SW 05:15:02 83° NW 05:21:02 10° NE
MOS 1 Rocket 4.0 05:11:13 10° SSE 05:15:56 57° ENE 05:20:58 10° N
Cosmos 1943 4.3 05:17:53 25° WSW 05:17:53 25° WSW 05:21:48 10° SSW
CZ-4B R/B 3.0 05:13:37 10° NNE 05:18:09 84° WNW 05:22:31 10° SSW
Cosmos 1689 Rocket 2.0 05:15:40 10° S 05:18:12 61° SSW 05:18:12 61° SSW
FALCON 9 DEB 2.8 05:18:32 68° WNW 05:18:44 71° NNW 05:21:58 10° NE
SAR-Lupe-4 3.8 05:18:55 10° S 05:22:21 45° W 05:22:38 44° W
ATLAS 3B R/B 2.7 05:17:51 21° NW 05:22:42 73° WSW 05:29:54 10° SSE
Aureole 2 Rocket 3.5 05:21:04 10° S 05:23:22 32° ESE 05:25:43 10° NE
Cosmos 1862 3.5 05:22:38 10° S 05:26:40 76° E 05:30:44 10° NNE
Genesis I 3.0 05:24:54 17° SW 05:27:48 77° NW 05:31:41 10° NE
YAOGAN 6 4.0 05:25:28 10° NNE 05:28:48 39° E 05:32:05 10° S
deb Chang Zheng 4 4.0 05:27:49 10° N 05:31:51 38° WNW 05:35:52 10° SW
ALOS 3.2 05:28:03 10° N 05:31:44 26° WNW 05:31:44 26° WNW
Cosmos 858 Rocket 4.4 05:28:27 10° SSW 05:33:40 85° WNW 05:38:57 10° NNE
Cosmos 990 Rocket 4.1 05:29:55 10° SW 05:35:02 54° WNW 05:40:13 10° NNE
Cosmos 2074 Rocket 3.9 05:30:25 10° SSW 05:36:34 66° W 05:42:46 10° N
PSLV R/B 4.0 05:33:49 10° NNE 05:37:42 70° ESE 05:41:27 10° S
ASTRO F (AKARI) 4.1 05:36:33 10° NNE 05:39:39 84° WNW 05:42:47 10° SSW
USA 305 4.1 05:38:55 19° NW 05:41:12 31° NNE 05:45:03 10° ENE
BREEZE M DEB (TANK) 3.6 05:33:05 10° SW 05:41:29 52° SSE 05:44:24 10° ENE
Meteor 1-31 Rocket 4.1 05:38:27 10° NNW 05:40:29 21° NW 05:40:29 21° NW
Cosmos 405 Rocket 2.5 05:38:48 10° SSW 05:42:29 79° W 05:46:15 10° N
EO 1 Delta rocket 3.9 05:41:45 10° S 05:46:46 63° W 05:51:22 10° NNW
Cosmos 1812 2.6 05:43:32 10° NNW 05:47:22 63° W 05:51:09 10° S
USA 306 4.1 05:47:01 17° NW 05:49:41 32° NNE 05:53:36 10° ENE
Cosmos 2228 Rocket 3.0 05:45:30 10° NNW 05:49:53 65° W 05:54:14 10° S
Cosmos 1515 Rocket 4.3 05:46:48 12° NNW 05:50:18 31° W 05:54:14 10° SSW
CENTAUR R/B 4.4 05:48:50 16° W 05:51:45 19° WSW 05:57:24 10° SW
NOSS 3-4 (A) 4.2 05:48:19 17° W 05:52:11 33° NNW 05:57:58 10° NNE
NOSS 3-4 (C) 4.2 05:48:24 17° W 05:52:18 33° NNW 05:58:06 10° NNE
SL-4 R/B 2.7 05:50:37 19° NW 05:52:50 35° N 05:56:14 10° ENE
Cosmos 1782 4.1 05:52:15 20° WNW 05:53:09 21° W 05:56:13 10° SW
DMSP B5D1-3 4.5 05:48:20 10° S 05:53:28 72° WSW 05:58:38 10° NNW
Cosmos 2184 Rocket 4.2 05:48:02 10° SSW 05:54:09 52° WNW 06:00:23 10° N
USA-17 4.5 05:51:17 10° SW 05:54:53 51° NW 05:57:56 10° NNE
FALCON 9 DEB 3.6 05:56:59 20° WNW 05:58:41 37° NNW 06:01:43 10° NE
USA 234 3.8 05:52:21 10° NE 05:58:51 63° SE 06:05:20 10° SW
Spot 2 4.4 05:54:53 10° NNE 06:00:03 77° WNW 06:05:06 10° SSW
Cosmos 1844 Rocket 2.8 05:55:13 10° SW 06:00:43 53° WNW 06:06:18 10° NNE
FALCON 9 DEB 4.4 05:59:52 15° NW 06:02:13 30° NNE 06:05:20 10° ENE
EXPRESS MD2 4.1 06:03:36 15° WNW 06:06:51 80° NNE 06:14:49 10° ESE
Cosmos 1707 Rocket 3.8 06:02:35 10° N 06:06:56 73° E 06:11:15 10° SSE
COSMOS 2455 2.9 06:02:47 10° SSW 06:08:49 89° SE 06:14:55 10° NNE
MOS 1-B 4.4 06:03:09 10° NNE 06:09:00 88° WNW 06:14:49 10° SSW
RESURS DK-1 3.2 06:05:36 10° WSW 06:09:14 28° NW 06:12:53 10° N
BREEZE-M (TANK) 4.3 06:02:51 10° SW 06:10:07 38° SSE 06:12:49 10° E
ATLAS CENTAUR R/B 2.2 06:08:18 14° WNW 06:10:56 29° WSW 06:14:23 10° S
BREEZE-M DEB 4.0 06:02:56 12° WNW 06:11:21 49° SW 06:14:28 10° SSE
ATLAS 2AS CENTAUR R/B 3.5 06:04:41 10° WSW 06:12:02 38° NW 06:19:12 10° NNE
NOAA 6 4.0 06:07:00 10° N 06:12:07 75° WNW 06:17:12 10° SSW
Cosmos 1500 Rocket 4.3 06:10:04 10° SW 06:13:53 30° WNW 06:17:44 10° N
Cosmos 1844 3.8 06:09:16 10° SW 06:14:38 50° WNW 06:20:05 10° NNE
H-2A R/B 3.4 06:11:08 10° N 06:14:40 33° WNW 06:18:09 10° SW
Lacrosse 5 2.7 06:11:18 11° W 06:15:46 34° NNW 06:20:23 10° NE
Atlas Centaur 2 4.3 06:13:25 10° SW 06:16:31 14° SSW 06:19:18 10° SSE
CZ-4B DEB 4.2 06:11:51 10° N 06:17:16 67° WNW 06:22:41 10° SSW
Cosmos 1437 Rocket 3.0 06:13:51 10° NNW 06:17:29 45° W 06:21:05 10° S
Cosmos 372 Rocket 3.9 06:13:01 10° SSW 06:18:05 68° WNW 06:23:11 10° NNE
Okean O Rocket 1.8 06:16:24 10° NNE 06:20:52 81° ESE 06:25:19 10° SSW
Geosat 4.4 06:16:52 10° SE 06:21:50 66° ENE 06:26:50 10° NNW
Cosmos 1242 Rocket 3.9 06:19:01 10° N 06:22:30 41° ENE 06:25:59 10° SSE
PAYLOAD B 4.2 06:18:13 10° N 06:23:44 72° WNW 06:29:11 10° SSW
USA 81 4.1 06:18:55 10° S 06:24:11 86° W 06:29:30 10° N
SJ 16-02 3.3 06:23:25 10° WNW 06:24:12 10° NW 06:24:59 10° NW
SMAP 3.0 06:19:53 10° NNE 06:24:35 83° WNW 06:29:13 10° SSW
Cosmos 2263 Rocket 4.0 06:25:40 10° WNW 06:27:47 12° NW 06:29:53 10° NNW
Gbstr 26 Del rocket 4.4 06:26:34 10° W 06:29:26 21° SW 06:32:30 10° S
ATLAS 5 CENTAUR R/B 2.1 06:27:14 10° SSW 06:31:13 63° SE 06:35:41 10° NE
FALCON 9 DEB 4.1 06:29:21 10° WNW 06:32:11 28° NNW 06:35:03 10° NE
FALCON 9 DEB 4.1 06:29:27 10° WNW 06:32:16 27° NNW 06:35:07 10° NE
Sich 1 3.3 06:30:12 10° SSW 06:34:29 47° WNW 06:38:48 10° N
Cosmos 2218 Rocket 4.2 06:28:19 10° S 06:34:35 79° E 06:40:49 10° N
CZ-2C R/B 2.7 06:30:03 10° S 06:35:32 71° WSW 06:40:55 10° NNW
